This demonstration page uses our WeatherBlox Daily Observations layout. Learn more.

Left ArrowRight Arrow

38.89511, -77.03637

Hourly Observations for May 25, 2017

Temp ( °F °C ) Dew Point ( °F °C ) Humidity (%) Winds ( mph kmh ) Pressure ( in mb ) Visibility ( mi km ) Precip ( " mm )
12:01 am 00:01 Cloudy with Light Rain 59 15 58 14.4 96 96 E 9 15 29.68 1005 10 16 0.01 0.25
12:03 am 00:03 Cloudy with Light Rain 59 15 58 14.4 96 96 ENE 8 13 29.68 1005 6 10 0.01 0.25
12:05 am 00:05 Cloudy with Light Rain 59 15 58 14.4 96 96 ENE 9 15 29.68 1005 6 10 0.01 0.25
12:38 am 00:38 Cloudy with Light Rain 59 15 57 13.9 93 93 ENE 10 17 29.68 1005 8 13 0.02 0.51
12:52 am 00:52 Cloudy with Light Rain 59 15 57 13.9 93 93 E 12 19 29.66 1004 8 13 0.02 0.51
1:06 am 01:06 Cloudy with Light Rain 59 15 57 13.9 93 93 E 14 22 29.65 1004 8 13 0.00 0.03
1:16 am 01:16 Cloudy with Light Rain 58 14.4 57 13.9 97 97 ENE 14 22 29.65 1004 6 10 0.00 0.03
1:52 am 01:52 Cloudy with Light Rain 58 14.4 57 13.9 97 97 ENE 15 24 29.61 1003 4 6 0.05 1.27
2:05 am 02:05 Cloudy with Light Rain 58 14.4 57 13.9 97 97 E 14 22 29.62 1003 5 8 0.01 0.25
2:21 am 02:21 Cloudy with Light Rain 58 14.4 57 13.9 97 97 E 12 19 29.62 1003 6 10 0.01 0.25
2:42 am 02:42 Cloudy with Heavy Rain 58 14.4 57 13.9 97 97 E 13 20 29.59 1002 4 6 0.08 2.03
2:52 am 02:52 Cloudy with Light Rain 58 14.4 57 13.9 97 97 E 8 13 29.58 1002 6 10 0.09 2.29
3:52 am 03:52 Cloudy with Rain 58 14.4 57 13.9 97 97 ENE 16 26 29.54 1000 5 8 0.05 1.27
4:52 am 04:52 Cloudy 58 14.4 57 13.9 97 97 ENE 12 19 29.52 1000 7 11 0.02 0.51
5:13 am 05:13 Cloudy with Drizzle 58 14.4 57 13.9 97 97 ENE 12 19 29.50 999 4 6 0.00 0.03
5:29 am 05:29 Cloudy with Drizzle 58 14.4 57 13.9 97 97 ENE 14 22 29.50 999 5 8 0.01 0.25
5:52 am 05:52 Cloudy with Light Rain 58 14.4 57 13.9 97 97 E 10 17 29.49 999 5 8 0.02 0.51
5:55 am 05:55 Cloudy with Light Rain 58 14.4 57 13.9 97 97 E 12 19 29.50 999 2 3 0.00 0.03
6:07 am 06:07 Cloudy with Light Rain 58 14.4 58 14.4 100 100 VRB 6 9 29.50 999 5 8 0.05 1.27
6:23 am 06:23 Cloudy with Light Rain 59 15 57 13.9 93 93 E 7 11 29.50 999 6 10 0.05 1.27
6:38 am 06:38 Cloudy with Light Rain 59 15 58 14.4 96 96 ENE 9 15 29.50 999 6 10 0.05 1.27
6:52 am 06:52 Cloudy with Rain 59 15 58 14.4 96 96 ENE 6 9 29.49 999 2 3 0.05 1.27
7:02 am 07:02 Cloudy with Heavy Rain 59 15 58 14.4 96 96 E 6 9 29.50 999 1 2 0.07 1.78
7:14 am 07:14 Cloudy with Light Rain 60 15.6 58 14.4 93 93 NE 9 15 29.50 999 3 4 0.21 5.33
7:16 am 07:16 Cloudy with Light Rain 60 15.6 58 14.4 93 93 NE 12 19 29.50 999 3 5 0.21 5.33
7:23 am 07:23 Cloudy with Light Rain 60 15.6 59 15 96 96 NE 9 15 29.50 999 6 10 0.21 5.33
7:52 am 07:52 Cloudy with Light Rain 60 15.6 59 15 96 96 NE 8 13 29.47 998 5 8 0.22 5.59
8:05 am 08:05 Cloudy with Light Rain 60 15.6 59 15 96 96 NE 8 13 29.47 998 3 4 0.00 0.03
8:11 am 08:11 Cloudy with Light Rain 60 15.6 60 15.6 100 100 NE 9 15 29.47 998 3 5 0.00 0.03
8:52 am 08:52 Cloudy with Light Rain 61 16.1 60 15.6 97 97 N 9 15 29.48 998 2 3 0.01 0.25
9:22 am 09:22 Cloudy with Mist and Fog 61 16.1 61 16.1 100 100 N 6 9 29.50 999 3 5 0.01 0.25
9:52 am 09:52 Cloudy with Mist and Fog 62 16.7 61 16.1 96 96 NW 7 11 29.49 999 4 6 0.01 0.25
10:24 am 10:24 Cloudy with Mist and Fog 63 17.2 61 16.1 93 93 NW 3 6 29.50 999 4 6 0.00 0.00
10:52 am 10:52 Cloudy 65 18.3 62 16.7 90 90 W 6 9 29.50 999 7 11 0.00 0.00
11:04 am 11:04 Cloudy 65 18.3 63 17.2 93 93 SW 6 9 29.50 999 10 16 0.00 0.00
11:39 am 11:39 Cloudy 67 19.4 62 16.7 84 84 WSW 8 13 29.53 1000 10 16 0.00 0.00
11:52 am 11:52 Cloudy 67 19.4 62 16.7 84 84 SSW 12 19 29.52 1000 10 16 0.00 0.00
12:52 pm 12:52 Mostly Cloudy 70 21.1 61 16.1 73 73 SW 9 15 29.51 999 10 16 0.00 0.00
1:52 pm 13:52 Mostly Cloudy 69 20.6 62 16.7 78 78 S 10 17 29.51 999 10 16 0.00 0.00
2:52 pm 14:52 Mostly Cloudy 73 22.8 63 17.2 71 71 S 9 15 29.47 998 10 16 0.00 0.00
3:44 pm 15:44 Partly Cloudy with Nearby Thunderstorms 74 23.3 60 15.6 62 62 S 12 19 29.44 997 10 16 0.00 0.00
3:52 pm 15:52 Partly Cloudy with Nearby Thunderstorms 74 23.3 60 15.6 62 62 S 9 15 29.44 997 10 16 0.00 0.00
4:04 pm 16:04 Partly Cloudy with Thunderstorms 75 23.9 61 16.1 62 62 S 8 13 29.44 997 10 16 0.00 0.00
4:42 pm 16:42 Mostly Cloudy with Thunderstorms 73 22.8 59 15 62 62 S 9 15 29.44 997 10 16 0.00 0.00
4:52 pm 16:52 Mostly Cloudy with Thunderstorms 73 22.8 60 15.6 64 64 SW 8 13 29.44 997 10 16 0.00 0.00
5:05 pm 17:05 Cloudy with Thunderstorms 73 22.8 58 14.4 59 59 SSW 8 13 29.44 997 10 16 0.00 0.00
5:20 pm 17:20 Cloudy with Thunderstorms 72 22.2 58 14.4 61 61 SW 7 11 29.44 997 10 16 0.00 0.03
5:36 pm 17:36 Cloudy with Thunderstorms 71 21.7 61 16.1 71 71 SW 12 19 29.47 998 8 13 0.01 0.25
5:52 pm 17:52 Cloudy with Strong Thunderstorms 67 19.4 61 16.1 81 81 SSW 25 41 29.48 998 3 4 0.02 0.51
6:02 pm 18:02 Cloudy with Thunderstorms 63 17.2 60 15.6 90 90 S 12 19 29.47 998 4 6 0.04 1.02
6:15 pm 18:15 Cloudy with Thunderstorms 63 17.2 59 15 87 87 SE 10 17 29.47 998 6 10 0.06 1.52
6:29 pm 18:29 Cloudy with Rain 63 17.2 59 15 87 87 ENE 5 7 29.47 998 6 10 0.10 2.54
6:44 pm 18:44 Cloudy with Thunderstorms 62 16.7 59 15 90 90 N 3 6 29.47 998 6 10 0.13 3.30
6:52 pm 18:52 Cloudy with Thunderstorms 62 16.7 60 15.6 93 93 NNW 13 20 29.48 998 8 13 0.15 3.81
7:03 pm 19:03 Cloudy with Light Rain 63 17.2 60 15.6 90 90 NNW 10 17 29.47 998 9 14 0.01 0.25
7:52 pm 19:52 Cloudy with Light Rain 63 17.2 59 15 87 87 W 12 19 29.51 999 10 16 0.02 0.51
7:59 pm 19:59 Cloudy with Light Rain 62 16.7 60 15.6 93 93 WSW 8 13 29.50 999 6 10 0.01 0.25
8:10 pm 20:10 Cloudy with Light Rain 62 16.7 59 15 90 90 SW 5 7 29.50 999 8 13 0.03 0.76
8:52 pm 20:52 Cloudy with Light Rain 62 16.7 59 15 90 90 SSE 7 11 29.47 998 10 16 0.04 1.02
9:52 pm 21:52 Cloudy 61 16.1 59 15 93 93 WSW 7 11 29.52 1000 10 16 0.00 0.03
10:52 pm 22:52 Mostly Cloudy 61 16.1 59 15 93 93 WSW 3 6 29.54 1001 10 16 0.00 0.00
11:52 pm 23:52 Mostly Cloudy 61 16.1 59 15 93 93 WSW 5 7 29.56 1001 10 16 0.00 0.00

Powered by AerisWeather